"Pseudo-MPEC" for C0FN3M5

Created 2023 Jan 31 15:22:03 UT using Find_Orb

Click here for an explanation of pseudo-MPECs

 
 Astrometry: 
     C0FN3M5* C2023 01 25HQ\`uAAstrometry!KUm2LAe-BZ3sS+$P7W#;kLmMfsauN=B.O:ZV00
     C0FN3M5  C2023 01 25J%AF:Ttm9xwP0!l!M9Om2+UaYr)g!CK#CL=xF0kx.B./h06'9)mDV00
     C0FN3M5  C2023 01 25^/X0lye6!kmE=0wctha(dJk,4[gMredacted;?5K#D)h6)S^Ds);V00
     C0FN3M5  C2023 01 25]Z$XI@:gD`tXua+:v0t:`1wm75le?-HyfZ,ODPibdYm%0Ww*K]oHV00
     C0FN3M5 mC2023 01 25*a8v1*(0pcgVl1`[)HEo$LL!1x8CA8?GI#P4smU)_@i@Ik?e`DlgV00
     C0FN3M5 mC2023 01 25y#e8]click?5YX.[2Vo_IJibD2\m$3Y+S6JEMjZ,Hi3)UCSnGW7/V00
     C0FN3M5 mC2023 01 25JFI(H6o,U+VUY5?HX,,gP9\Qhereps`Lw,vY.fforZd\@tAPOTQtV00
     C0FN3M5 mC2023 01 25SQ90RTa#N)%.Y9qFM5(m/#w8X(W,\.2explanationOLw\'^_/`BV00
     C0FN3M5 KC2023 01 27hI'@HTU*!?-SWe[4qqv^G#[)*sBmZd5)@=#hK2r'QZZcy;QK3N/4H21
     C0FN3M5 KC2023 01 27QDq5=m\Q1q4Rh7@n$mO/'/r$$QkR:%]^PLVC.aUYv-g'JkNy!U.MH21
     C0FN3M5 KC2023 01 27\fQ3X](7@@hlveT8@h4'j!/:G7mHm!O)g'ydxk+?YQ;x`S?(AFrwH21
     C0FN3M5 KC2023 01 28.51510 12 11 35.14 +37 53 54.6    ~1SDb       oNEOCP291
     C0FN3M5 KC2023 01 28.52810 12 11 33.83 +37 53 53.8    ~1SDb 22.2 RoNEOCP291
     C0FN3M5 KC2023 01 28.54109 12 11 32.56 +37 53 52.6    ~1SDb       oNEOCP291
     C0FN3M5 1C2023 01 29.15586 12 10 32.86 +37 52 55.7    ~1T9b 21.4 VXNEOCP033
     C0FN3M5 1C2023 01 29.15944 12 10 32.55 +37 52 55.5    ~1T9b 21.9 VXNEOCP033
     C0FN3M5 1C2023 01 29.16303 12 10 32.19 +37 52 55.2    ~1T9b 21.7 VXNEOCP033
     C0FN3M5 KC2023 01 30.44407912 08 23.125+37 50 51.83   ~1UCM 21.38GVNEOCPI52
     C0FN3M5 KC2023 01 30.45099412 08 22.391+37 50 51.07   ~1UCM 21.61GVNEOCPI52
     C0FN3M5 KC2023 01 30.45635312 08 21.818+37 50 50.32   ~1UCM 21.15GVNEOCPI52
     C0FN3M5 KC2023 01 30.46173812 08 21.253+37 50 49.85   ~1UCM 21.55GVNEOCPI52

Station data:
(033) Karl Schwarzschild Observatory, Tautenburg  (N50.980137 E11.711240)
   Germany.  Observers S. Melnikov, C. Hoegner, B. Stecklum. Measurer B.
   Stecklum. 1.34-m f/3 Schmidt + CCD.
(291) LPL/Spacewatch II  (N31.961669 W111.599905)  US/Arizona.  Observers J.
   V. Scotti, R. S. McMillan. 1.8-m f/2.7 reflector + CCD.
(H21) Astronomical Research Observatory, Westfield  (N39.483054 W87.968270)
   US/Illinois.  Observer R. Holmes. Measurers S. Foglia, L. Buzzi, T.
   Linder, R. Holmes. 0.76-m f/3.0 astrograph + CCD0.81-m f/4.0 astrograph +
   CCD0.61-m f/4.5 astrograph + CCD0.40-m f/5.32 astrograph + CCD.
(I52) Steward Observatory, Mt. Lemmon Station  (N32.442544 W110.788920)
   US/Arizona.  Observers T. A. Pruyne, B. M. Africano, E. J. Christensen, G.
   A. Farneth, D. C. Fuls, A. R. Gibbs, A. D. Grauer, H. Gröller, J. A.
   Johnson, R. A. Kowalski, S. M. Larson, G. J. Leonard, D. Rankin, R. L.
   Seaman, F. C. Shelly, K. W. Wierzchoś. 1.0-m reflector + CCD.
(V00) Kitt Peak-Bok  (N31.963125 W111.600190)  US/Arizona.  Observers T. A.
   Pruyne, B. M. Africano, E. J. Christensen, G. A. Farneth, D. C. Fuls, A.
   R. Gibbs, A. D. Grauer, H. Gröller, J. A. Johnson, R. A. Kowalski, S. M.
   Larson, G. J. Leonard, D. Rankin, R. L. Seaman, F. C. Shelly, K. W.
   Wierzchoś. 2.25-m reflector + CCD.

Orbital elements:  C0FN3M5
   Perihelion 2022 Oct 11.32791 +/- 3.74 TT =  7:52:11 (JD 2459863.82791)
Epoch 2023 Jan 30.0 TT = JDT 2459974.5   Earth MOID: 0.4557      AutoNEOCP
M  25.66543942 +/- 1.4              (J2000 ecliptic)
n   0.23190526 +/- 0.00572          Peri.   63.21223 +/- 1.1
a   2.62378943 +/- 0.043            Node     3.85706 +/- 1.3
e   0.5066205 +/- 0.0179            Incl.   26.28757 +/- 1.1
P   4.25                   H 19.83  G  0.15   U  9.3
q 1.29452388 +/- 0.0258    Q 3.95305497 +/- 0.112
From 21 observations 2023 Jan. 25-30; mean residual 0".17
Residuals in arcseconds: 
230125 V00  .29-  .04-    230125 V00  .05-  .10-    230129 033  .39-  .34-    
230125 V00  .20-  .01+    230127 H21  .18+  .11+    230129 033  .25+  .20-    
230125 V00  .03+  .15+    230127 H21  .12-  .01+    230129 033  .31+  .15-    
230125 V00  .14+  .00     230127 H21  .15+  .02+    230130 I52  .16-  .20+    
230125 V00  .08+  .04-    230128 291  .19-  .29-    230130 I52  .04-  .17+    
230125 V00  .09+  .00     230128 291  .25-  .14+    230130 I52  .00   .00     
230125 V00  .11+  .15+    230128 291  .13+  .20+    230130 I52  .18+  .12+    

Ephemerides (geocentric):
Date (UTC) HH   RA             Dec           delta  r     elong  mag " sig PA
---- --------  ------------   ------------  ------ ------ -----  --- --------
2023 01 31 15  12 06 18.819   +37 48 33.57  .89110 1.7243 133.5 22.0 .637 120
2023 01 31 16  12 06 14.346   +37 48 28.36  .89108 1.7245 133.5 22.0 .657 120
2023 01 31 17  12 06 09.868   +37 48 23.11  .89106 1.7248 133.6 22.0 .677 120
2023 01 31 18  12 06 05.383   +37 48 17.84  .89104 1.7250 133.6 22.0 .698 120
2023 01 31 19  12 06 00.893   +37 48 12.55  .89102 1.7253 133.7 22.0 .719 120
2023 01 31 20  12 05 56.396   +37 48 07.23  .89101 1.7255 133.7 22.0 .740 120
2023 01 31 21  12 05 51.894   +37 48 01.88  .89099 1.7258 133.7 21.9 .762 120
2023 01 31 22  12 05 47.386   +37 47 56.50  .89097 1.7260 133.8 21.9 .785 120
2023 01 31 23  12 05 42.872   +37 47 51.10  .89096 1.7263 133.8 21.9 .808 120
2023 02 01 00  12 05 38.352   +37 47 45.66  .89094 1.7265 133.9 21.9 .831 120
2023 02 01 01  12 05 33.826   +37 47 40.21  .89093 1.7268 133.9 21.9 .854 120
2023 02 01 02  12 05 29.295   +37 47 34.72  .89091 1.7270 133.9 21.9 .879 120
2023 02 01 03  12 05 24.757   +37 47 29.21  .89090 1.7273 134.0 21.9 .903 120
2023 02 01 04  12 05 20.214   +37 47 23.67  .89088 1.7275 134.0 21.9 .928 120
2023 02 01 05  12 05 15.665   +37 47 18.10  .89087 1.7278 134.1 21.9 .953 120
2023 02 01 06  12 05 11.110   +37 47 12.50  .89085 1.7280 134.1 21.9 .979 120
2023 02 01 07  12 05 06.550   +37 47 06.88  .89084 1.7283 134.1 21.9 1.01 120
2023 02 01 08  12 05 01.983   +37 47 01.23  .89082 1.7285 134.2 21.9 1.03 120
2023 02 01 09  12 04 57.411   +37 46 55.55  .89081 1.7288 134.2 21.9 1.06 120
2023 02 01 10  12 04 52.833   +37 46 49.84  .89080 1.7290 134.3 21.9 1.09 120
2023 02 01 11  12 04 48.250   +37 46 44.10  .89078 1.7293 134.3 21.9 1.12 120
2023 02 01 12  12 04 43.660   +37 46 38.34  .89077 1.7295 134.3 21.9 1.14 120
2023 02 01 13  12 04 39.065   +37 46 32.54  .89076 1.7298 134.4 21.9 1.17 120
2023 02 01 14  12 04 34.464   +37 46 26.72  .89075 1.7300 134.4 21.9 1.20 120
2023 02 01 15  12 04 29.858   +37 46 20.87  .89073 1.7303 134.5 21.9 1.23 120
2023 02 01 16  12 04 25.245   +37 46 14.99  .89072 1.7305 134.5 21.9 1.26 120
2023 02 01 17  12 04 20.627   +37 46 09.09  .89071 1.7308 134.5 21.9 1.30 119
2023 02 01 18  12 04 16.003   +37 46 03.15  .89070 1.7310 134.6 21.9 1.33 119
2023 02 01 19  12 04 11.374   +37 45 57.19  .89069 1.7313 134.6 21.9 1.36 119
2023 02 01 20  12 04 06.739   +37 45 51.19  .89068 1.7315 134.7 21.9 1.39 119
2023 02 01 21  12 04 02.098   +37 45 45.17  .89067 1.7318 134.7 21.9 1.43 119
2023 02 01 22  12 03 57.452   +37 45 39.12  .89066 1.7320 134.8 21.9 1.46 119
2023 02 01 23  12 03 52.800   +37 45 33.04  .89065 1.7323 134.8 21.9 1.49 119
2023 02 02 00  12 03 48.142   +37 45 26.93  .89064 1.7326 134.8 21.9 1.53 119
2023 02 02 01  12 03 43.479   +37 45 20.79  .89063 1.7328 134.9 21.9 1.56 119
2023 02 02 02  12 03 38.810   +37 45 14.62  .89062 1.7331 134.9 21.9 1.60 119
2023 02 02 03  12 03 34.135   +37 45 08.42  .89061 1.7333 135.0 21.9 1.64 119
2023 02 02 04  12 03 29.455   +37 45 02.20  .89060 1.7336 135.0 21.9 1.67 118
2023 02 02 05  12 03 24.769   +37 44 55.94  .89060 1.7338 135.0 21.9 1.71 118
2023 02 02 06  12 03 20.078   +37 44 49.65  .89059 1.7341 135.1 21.9 1.75 118
2023 02 02 07  12 03 15.381   +37 44 43.33  .89058 1.7343 135.1 21.9 1.79 118
2023 02 02 08  12 03 10.678   +37 44 36.99  .89057 1.7346 135.2 21.9 1.83 118
2023 02 02 09  12 03 05.970   +37 44 30.61  .89057 1.7348 135.2 21.9 1.86 118
2023 02 02 10  12 03 01.256   +37 44 24.20  .89056 1.7351 135.2 21.9 1.91 118
2023 02 02 11  12 02 56.537   +37 44 17.76  .89055 1.7353 135.3 21.9 1.95 118
2023 02 02 12  12 02 51.813   +37 44 11.30  .89055 1.7356 135.3 21.9 1.99 118
2023 02 02 13  12 02 47.082   +37 44 04.80  .89054 1.7358 135.4 21.9 2.03 118
2023 02 02 14  12 02 42.347   +37 43 58.27  .89054 1.7361 135.4 21.9 2.07 117